Tracking 27086 objects as of 22-Mar-2023
HD Live streaming from Space Station
objects crossing your sky now

STARLINK-2378

Track STARLINK-2378 now!
10-day predictions
STARLINK-2378 is classified as:


NORAD ID: 47916
Int'l Code: 2021-021BJ
Perigee: 553.4 km
Apogee: 555.4 km
Inclination: 53.1 °
Period: 95.6 minutes
Semi major axis: 6925 km
RCS: Unknown
Launch date: March 14, 2021
Source: United States (US)
Launch site: AIR FORCE EASTERN TEST RANGE (AFETR)
Your satellite tracking list
Your tracking list is empty




NASA's NSSDC Master Catalog

Two Line Element Set (TLE):
1 47916U 21021BJ  23081.23646484  .00001523  00000-0  12110-3 0  9993
2 47916  53.0526  85.4247 0001427  91.8988 268.2165 15.06394688112551
Source of the keplerian elements: AFSPC